This is the latest recevied weather packets stored in our database for station/object W7TTE. If no packets are shown the sender has not sent any weather packets the latest 10 day(s).
| Time | Temp. | Humidity | Pressure | Rain* | Wind** | Luminosity | Snow |
|---|---|---|---|---|---|---|---|
| 1777814535 | 22.22° C | 35% | 1012.4 hPa | 0 mm | - | 23 W/m² | - |
| 1777813929 | 22.22° C | 34% | 1012.3 hPa | 0 mm | - | 16 W/m² | - |
| 1777813627 | 21.67° C | 36% | 1012.3 hPa | 0 mm | - | 13 W/m² | - |
| 1777813324 | 21.67° C | 34% | 1012.3 hPa | 0 mm | - | 10 W/m² | - |
| 1777812415 | 21.67° C | 33% | 1012 hPa | 0 mm | - | 3 W/m² | - |
| 1777812114 | 21.67° C | 32% | 1012 hPa | 0 mm | - | 2 W/m² | - |
| 1777811811 | 21.67° C | 32% | 1012 hPa | 0 mm | - | 1 W/m² | - |
| 1777811509 | 21.67° C | 32% | 1011.9 hPa | 0 mm | - | 0 W/m² | - |
| 1777811204 | 21.67° C | 30% | 1012 hPa | 0 mm | - | 0 W/m² | - |
| 1777810902 | 21.67° C | 30% | 1011.9 hPa | 0 mm | - | 0 W/m² | - |
| 1777810598 | 21.67° C | 30% | 1011.9 hPa | 0 mm | - | 0 W/m² | - |
| 1777809991 | 21.11° C | 32% | 1011.8 hPa | 0 mm | - | 0 W/m² | - |
| 1777809689 | 21.67° C | 32% | 1011.9 hPa | 0 mm | - | 0 W/m² | - |
| 1777809084 | 21.67° C | 33% | 1011.8 hPa | 0 mm | - | 0 W/m² | - |
| 1777808782 | 21.67° C | 36% | 1011.7 hPa | 0 mm | - | 0 W/m² | - |
| 1777806965 | 21.67° C | 28% | 1011.8 hPa | 0 mm | - | 0 W/m² | - |
| 1777806661 | 21.67° C | 28% | 1011.7 hPa | 0 mm | - | 0 W/m² | - |
| 1777806357 | 21.67° C | 29% | 1011.9 hPa | 0 mm | - | 0 W/m² | - |
| 1777803026 | 21.67° C | 28% | 1012.2 hPa | 0 mm | - | 0 W/m² | - |
| 1777802723 | 21.67° C | 28% | 1012.2 hPa | 0 mm | - | 0 W/m² | - |
| 1777802421 | 21.67° C | 27% | 1012 hPa | 0 mm | - | 0 W/m² | - |
| 1777801209 | 22.22° C | 28% | 1011.8 hPa | 0 mm | - | 0 W/m² | - |
| 1777800906 | 22.22° C | 27% | 1011.8 hPa | 0 mm | - | 0 W/m² | - |
| 1777800602 | 22.22° C | 29% | 1011.8 hPa | 0 mm | - | 0 W/m² | - |
| 1777800299 | 22.78° C | 28% | 1011.9 hPa | 0 mm | - | 0 W/m² | - |
* Rain latest hour (hover to see other rain measurements)
** Current wind speed in m/s (hover to see current wind gust speed)